Content
SEND FEEDBACK

Daily
Averages
Monthly
Summary
Mexico

SAN BALTAZAR TETELA, PUEBLA


Home > North America > Mexico > Puebla
Elevation: 6759 feet     Latitude: 18 54N     Longitude: 098 10W

WEATHER
 
SELECT A DAY
Number of Records: 120,923;   Date Range: 1/1/95 - 7/30/14
 
SHARE

PRINT THIS DATA

[ ← Previous Day ]
WEATHER ALMANAC - APRIL 21, 2013
[ Next Day → ]
[ °C ]   °F
Weather ElementAverageHighLow
Temperature68 °F82 °F (3:40 pm)48.2 °F (6:41 am)
Dewpoint40 °F49 °F (9:45 am)35.6 °F (9:43 pm)
Humidity35.5 %66 % (6:41 am)20 % (3:40 pm)
Barometer30.16 in30.41 in (10:44 am)29.59 in (9:45 pm)
Wind Speed11 mph134.2 mph (6:40 pm)
Weather ElementAverage
Visibility5.1 mi
Wind DirectionSE (130.9 °)

Weather ElementTotal
Precipitation---
Cooling Degree Days0.1 (Base 65)
Growing Degree Days15.1 (Base 50)
Averaged from 25 records on April 21, 2013
WEATHER CONDITIONS BREAKOUT
WIND DIRECTION BREAKOUT
WEATHER BY HOUR - APRIL 21, 2013
[ °C ]   °F
Local TimeTemperatureDewpointHumidityBarometerVisibilityWind DirectionWind SpeedGust SpeedPrecipitationEventsConditions
3:58 AM64.0 °F37.0 °F25 %29.75 in3.0 miCalm
5:45 AM51.8 °F37.4 °F58 %30.32 in5.0 miCalmClear
6:41 AM48.2 °F37.4 °F66 %30.33 in5.0 miCalmClear
6:58 AM56.0 °F42.0 °F47 %29.79 in3.0 miCalm
7:42 AM50.0 °F37.4 °F62 %30.36 in5.0 miCalmClear
8:47 AM57.2 °F39.2 °F51 %30.39 in5.0 miNW (320°)5.8 mphClear
9:43 AM64.4 °F44.6 °F49 %30.40 in5.0 miCalmClear
9:45 AM65.0 °F49.0 °F46 %29.92 in3.0 miCalmHaze
10:44 AM68.0 °F42.8 °F40 %30.41 in5.0 miEast (80°)3.5 mphClear
11:41 AM71.6 °F42.8 °F35 %30.40 in5.0 miSouth (180°)9.2 mphClear
12:43 PM75.2 °F41.0 °F29 %30.37 in6.0 miEast (100°)9.2 mphClear
12:45 PM77.0 °F49.0 °F26 %29.88 in3.0 miSSW (210°)2.2 mphHaze
1:43 PM77.0 °F37.4 °F24 %30.34 in6.0 miSSW (200°)9.2 mphClear
2:41 PM77.0 °F39.2 °F26 %30.30 in6.0 miSW (220°)11.5 mphClear
3:40 PM82.0 °F47.0 °F20 %29.71 in3.0 miSSE (160°)4.5 mphHaze
3:44 PM78.8 °F37.4 °F23 %30.27 in6.0 miSW (220°)12.7 mphPartly Cloudy
4:42 PM78.8 °F37.4 °F23 %30.25 in6.0 miSouth (190°)18.4 mphPartly Cloudy
5:44 PM75.2 °F37.4 °F25 %30.24 in7.0 miSSE (160°)12.7 mphScattered Clouds
6:40 PM42.0 °F29.61 in3.0 miNNE (20°)134.2 mphHaze
6:43 PM75.2 °F37.4 °F25 %30.25 in7.0 miSouth (190°)13.8 mphScattered Clouds
7:41 PM71.6 °F37.4 °F29 %30.25 in7.0 miSouth (190°)11.5 mphMostly Cloudy
8:40 PM66.2 °F37.4 °F35 %30.29 in7.0 miSSE (150°)9.2 mphMostly Cloudy
9:43 PM64.4 °F35.6 °F34 %30.31 in7.0 miSSE (150°)5.8 mphMostly Cloudy
9:45 PM71.0 °F39.0 °F21 %29.59 in3.0 miSE (140°)2.2 mphClear
10:42 PM66.2 °F35.6 °F32 %30.33 in7.0 miCalmMostly Cloudy
Hourly data recorded from MMPB, located miles away from San Baltazar Tetela, Puebla







STORIES FROM OUR PARTNERS